#datetime,building,power
2022-04-29T00:00:00,mfh,32.26
2022-04-29T00:01:00,mfh,32.65
2022-04-29T00:02:00,mfh,32.09
2022-04-29T00:03:00,mfh,32.07
2022-04-29T00:04:00,mfh,31.92
2022-04-29T00:05:00,mfh,31.46
2022-04-29T00:06:00,mfh,31.55
2022-04-29T00:07:00,mfh,31.59
2022-04-29T00:08:00,mfh,33.03
2022-04-29T00:09:00,mfh,32.17
2022-04-29T00:10:00,mfh,32.23
2022-04-29T00:11:00,mfh,32.14
2022-04-29T00:12:00,mfh,31.32
2022-04-29T00:13:00,mfh,31.34
2022-04-29T00:14:00,mfh,31.89
2022-04-29T00:15:00,mfh,31.40
2022-04-29T00:16:00,mfh,32.05
2022-04-29T00:17:00,mfh,32.20
2022-04-29T00:18:00,mfh,32.21
2022-04-29T00:19:00,mfh,33.01
2022-04-29T00:20:00,mfh,32.22
2022-04-29T00:21:00,mfh,31.52
2022-04-29T00:22:00,mfh,31.52
2022-04-29T00:23:00,mfh,31.42
2022-04-29T00:24:00,mfh,32.16
2022-04-29T00:25:00,mfh,32.18
2022-04-29T00:26:00,mfh,32.21
2022-04-29T00:27:00,mfh,33.14
2022-04-29T00:28:00,mfh,31.34
2022-04-29T00:29:00,mfh,31.31
2022-04-29T00:30:00,mfh,31.32
2022-04-29T00:31:00,mfh,31.73
2022-04-29T00:32:00,mfh,31.49
2022-04-29T00:33:00,mfh,32.23
2022-04-29T00:34:00,mfh,32.39
2022-04-29T00:35:00,mfh,33.25
2022-04-29T00:36:00,mfh,32.29
2022-04-29T00:37:00,mfh,31.60
2022-04-29T00:38:00,mfh,31.67
2022-04-29T00:39:00,mfh,31.63
2022-04-29T00:40:00,mfh,31.62
2022-04-29T00:41:00,mfh,31.95
2022-04-29T00:42:00,mfh,32.00
2022-04-29T00:43:00,mfh,32.28
2022-04-29T00:44:00,mfh,32.32
2022-04-29T00:45:00,mfh,31.76
2022-04-29T00:46:00,mfh,32.52
2022-04-29T00:47:00,mfh,32.54
2022-04-29T00:48:00,mfh,32.48
2022-04-29T00:49:00,mfh,33.29
2022-04-29T00:50:00,mfh,33.31
2022-04-29T00:51:00,mfh,32.48
2022-04-29T00:52:00,mfh,32.78
2022-04-29T00:53:00,mfh,31.70
2022-04-29T00:54:00,mfh,31.41
2022-04-29T00:55:00,mfh,31.38
2022-04-29T00:56:00,mfh,31.39
2022-04-29T00:57:00,mfh,32.13
2022-04-29T00:58:00,mfh,32.17
2022-04-29T00:59:00,mfh,32.21
2022-04-29T01:00:00,mfh,32.17
2022-04-29T01:01:00,mfh,32.22
2022-04-29T01:02:00,mfh,31.42
2022-04-29T01:03:00,mfh,31.42
2022-04-29T01:04:00,mfh,31.53
2022-04-29T01:05:00,mfh,31.58
2022-04-29T01:06:00,mfh,32.05
2022-04-29T01:07:00,mfh,32.07
2022-04-29T01:08:00,mfh,32.11
2022-04-29T01:09:00,mfh,32.56
2022-04-29T01:10:00,mfh,32.15
2022-04-29T01:11:00,mfh,31.69
2022-04-29T01:12:00,mfh,32.26
2022-04-29T01:13:00,mfh,31.57
2022-04-29T01:14:00,mfh,32.21
2022-04-29T01:15:00,mfh,32.14
2022-04-29T01:16:00,mfh,32.88
2022-04-29T01:17:00,mfh,32.19
2022-04-29T01:18:00,mfh,31.50
2022-04-29T01:19:00,mfh,31.51
2022-04-29T01:20:00,mfh,31.50
2022-04-29T01:21:00,mfh,31.42
2022-04-29T01:22:00,mfh,32.07
2022-04-29T01:23:00,mfh,32.28
2022-04-29T01:24:00,mfh,32.53
2022-04-29T01:25:00,mfh,32.13
2022-04-29T01:26:00,mfh,31.77
2022-04-29T01:27:00,mfh,31.40
2022-04-29T01:28:00,mfh,31.32
2022-04-29T01:29:00,mfh,31.27
2022-04-29T01:30:00,mfh,31.97
2022-04-29T01:31:00,mfh,32.03
2022-04-29T01:32:00,mfh,32.10
2022-04-29T01:33:00,mfh,32.15
2022-04-29T01:34:00,mfh,31.45
2022-04-29T01:35:00,mfh,31.54
2022-04-29T01:36:00,mfh,31.75
2022-04-29T01:37:00,mfh,31.74
2022-04-29T01:38:00,mfh,32.40
2022-04-29T01:39:00,mfh,32.42
2022-04-29T01:40:00,mfh,32.38
2022-04-29T01:41:00,mfh,32.69
2022-04-29T01:42:00,mfh,32.91
2022-04-29T01:43:00,mfh,31.47
2022-04-29T01:44:00,mfh,31.97
2022-04-29T01:45:00,mfh,31.91
2022-04-29T01:46:00,mfh,32.50
2022-04-29T01:47:00,mfh,37.98
2022-04-29T01:48:00,mfh,51.80
2022-04-29T01:49:00,mfh,60.69
2022-04-29T01:50:00,mfh,60.66
2022-04-29T01:51:00,mfh,60.93
2022-04-29T01:52:00,mfh,59.94
2022-04-29T01:53:00,mfh,59.35
2022-04-29T01:54:00,mfh,59.45
2022-04-29T01:55:00,mfh,59.04
2022-04-29T01:56:00,mfh,58.64
2022-04-29T01:57:00,mfh,58.57
2022-04-29T01:58:00,mfh,57.98
2022-04-29T01:59:00,mfh,57.02
2022-04-29T02:00:00,mfh,56.76
2022-04-29T02:01:00,mfh,56.54
2022-04-29T02:02:00,mfh,56.52
2022-04-29T02:03:00,mfh,57.23
2022-04-29T02:04:00,mfh,49.72
2022-04-29T02:05:00,mfh,49.72
2022-04-29T02:06:00,mfh,37.04
2022-04-29T02:07:00,mfh,30.65
2022-04-29T02:08:00,mfh,30.61
2022-04-29T02:09:00,mfh,30.71
2022-04-29T02:10:00,mfh,30.87
2022-04-29T02:11:00,mfh,31.63
2022-04-29T02:12:00,mfh,31.90
2022-04-29T02:13:00,mfh,31.96
2022-04-29T02:14:00,mfh,32.08
2022-04-29T02:15:00,mfh,31.82
2022-04-29T02:16:00,mfh,31.21
2022-04-29T02:17:00,mfh,32.51
2022-04-29T02:18:00,mfh,31.59
2022-04-29T02:19:00,mfh,31.71
2022-04-29T02:20:00,mfh,32.75
2022-04-29T02:21:00,mfh,32.32
2022-04-29T02:22:00,mfh,32.36
2022-04-29T02:23:00,mfh,32.51
2022-04-29T02:24:00,mfh,31.68
2022-04-29T02:25:00,mfh,31.78
2022-04-29T02:26:00,mfh,31.86
2022-04-29T02:27:00,mfh,31.76
2022-04-29T02:28:00,mfh,32.50
2022-04-29T02:29:00,mfh,32.50
2022-04-29T02:30:00,mfh,32.86
2022-04-29T02:31:00,mfh,33.45
2022-04-29T02:32:00,mfh,32.11
2022-04-29T02:33:00,mfh,32.02
2022-04-29T02:34:00,mfh,32.03
2022-04-29T02:35:00,mfh,32.01
2022-04-29T02:36:00,mfh,32.69
2022-04-29T02:37:00,mfh,32.66
2022-04-29T02:38:00,mfh,32.72
2022-04-29T02:39:00,mfh,32.61
2022-04-29T02:40:00,mfh,31.98
2022-04-29T02:41:00,mfh,31.75
2022-04-29T02:42:00,mfh,31.76
2022-04-29T02:43:00,mfh,31.82
2022-04-29T02:44:00,mfh,32.60
2022-04-29T02:45:00,mfh,32.49
2022-04-29T02:46:00,mfh,32.33
2022-04-29T02:47:00,mfh,33.18
2022-04-29T02:48:00,mfh,32.30
2022-04-29T02:49:00,mfh,31.64
2022-04-29T02:50:00,mfh,31.63
2022-04-29T02:51:00,mfh,31.60
2022-04-29T02:52:00,mfh,31.58
2022-04-29T02:53:00,mfh,32.14
2022-04-29T02:54:00,mfh,32.57
2022-04-29T02:55:00,mfh,32.24
2022-04-29T02:56:00,mfh,32.61
2022-04-29T02:57:00,mfh,31.81
2022-04-29T02:58:00,mfh,31.84
2022-04-29T02:59:00,mfh,31.78
2022-04-29T03:00:00,mfh,31.78
2022-04-29T03:01:00,mfh,32.56
2022-04-29T03:02:00,mfh,32.68
2022-04-29T03:03:00,mfh,32.85
2022-04-29T03:04:00,mfh,32.71
2022-04-29T03:05:00,mfh,32.08
2022-04-29T03:06:00,mfh,32.21
2022-04-29T03:07:00,mfh,32.26
2022-04-29T03:08:00,mfh,32.25
2022-04-29T03:09:00,mfh,32.95
2022-04-29T03:10:00,mfh,33.02
2022-04-29T03:11:00,mfh,33.06
2022-04-29T03:12:00,mfh,33.96
2022-04-29T03:13:00,mfh,32.30
2022-04-29T03:14:00,mfh,32.29
2022-04-29T03:15:00,mfh,32.09
2022-04-29T03:16:00,mfh,32.09
2022-04-29T03:17:00,mfh,32.65
2022-04-29T03:18:00,mfh,32.71
2022-04-29T03:19:00,mfh,32.58
2022-04-29T03:20:00,mfh,32.70
2022-04-29T03:21:00,mfh,32.07
2022-04-29T03:22:00,mfh,32.16
2022-04-29T03:23:00,mfh,32.30
2022-04-29T03:24:00,mfh,32.29
2022-04-29T03:25:00,mfh,41.98
2022-04-29T03:26:00,mfh,42.36
2022-04-29T03:27:00,mfh,42.46
2022-04-29T03:28:00,mfh,42.35
2022-04-29T03:29:00,mfh,41.59
2022-04-29T03:30:00,mfh,41.44
2022-04-29T03:31:00,mfh,41.43
2022-04-29T03:32:00,mfh,41.48
2022-04-29T03:33:00,mfh,42.14
2022-04-29T03:34:00,mfh,41.93
2022-04-29T03:35:00,mfh,42.03
2022-04-29T03:36:00,mfh,41.99
2022-04-29T03:37:00,mfh,41.96
2022-04-29T03:38:00,mfh,41.38
2022-04-29T03:39:00,mfh,41.38
2022-04-29T03:40:00,mfh,41.29
2022-04-29T03:41:00,mfh,41.30
2022-04-29T03:42:00,mfh,41.89
2022-04-29T03:43:00,mfh,42.28
2022-04-29T03:44:00,mfh,42.41
2022-04-29T03:45:00,mfh,42.64
2022-04-29T03:46:00,mfh,41.95
2022-04-29T03:47:00,mfh,41.84
2022-04-29T03:48:00,mfh,41.82
2022-04-29T03:49:00,mfh,41.74
2022-04-29T03:50:00,mfh,42.99
2022-04-29T03:51:00,mfh,42.68
2022-04-29T03:52:00,mfh,42.64
2022-04-29T03:53:00,mfh,43.39
2022-04-29T03:54:00,mfh,43.47
2022-04-29T03:55:00,mfh,42.74
2022-04-29T03:56:00,mfh,43.76
2022-04-29T03:57:00,mfh,42.32
2022-04-29T03:58:00,mfh,42.02
2022-04-29T03:59:00,mfh,42.88
2022-04-29T04:00:00,mfh,42.65
2022-04-29T04:01:00,mfh,43.11
2022-04-29T04:02:00,mfh,42.66
2022-04-29T04:03:00,mfh,43.02
2022-04-29T04:04:00,mfh,41.98
2022-04-29T04:05:00,mfh,42.20
2022-04-29T04:06:00,mfh,42.03
2022-04-29T04:07:00,mfh,42.68
2022-04-29T04:08:00,mfh,42.58
2022-04-29T04:09:00,mfh,42.57
2022-04-29T04:10:00,mfh,42.63
2022-04-29T04:11:00,mfh,42.75
2022-04-29T04:12:00,mfh,41.83
2022-04-29T04:13:00,mfh,41.83
2022-04-29T04:14:00,mfh,42.07
2022-04-29T04:15:00,mfh,43.20
2022-04-29T04:16:00,mfh,43.43
2022-04-29T04:17:00,mfh,42.04
2022-04-29T04:18:00,mfh,42.05
2022-04-29T04:19:00,mfh,41.91
2022-04-29T04:20:00,mfh,42.05
2022-04-29T04:21:00,mfh,42.40
2022-04-29T04:22:00,mfh,42.25
2022-04-29T04:23:00,mfh,42.67
2022-04-29T04:24:00,mfh,42.25
2022-04-29T04:25:00,mfh,41.49
2022-04-29T04:26:00,mfh,41.81
2022-04-29T04:27:00,mfh,41.27
2022-04-29T04:28:00,mfh,41.35
2022-04-29T04:29:00,mfh,42.13
2022-04-29T04:30:00,mfh,41.97
2022-04-29T04:31:00,mfh,42.00
2022-04-29T04:32:00,mfh,42.35
2022-04-29T04:33:00,mfh,41.36
2022-04-29T04:34:00,mfh,41.43
2022-04-29T04:35:00,mfh,41.40
2022-04-29T04:36:00,mfh,41.55
2022-04-29T04:37:00,mfh,41.25
2022-04-29T04:38:00,mfh,42.32
2022-04-29T04:39:00,mfh,41.92
2022-04-29T04:40:00,mfh,41.86
2022-04-29T04:41:00,mfh,41.73
2022-04-29T04:42:00,mfh,41.11
2022-04-29T04:43:00,mfh,41.56
2022-04-29T04:44:00,mfh,41.53
2022-04-29T04:45:00,mfh,43.09
2022-04-29T04:46:00,mfh,43.89
2022-04-29T04:47:00,mfh,43.95
2022-04-29T04:48:00,mfh,43.94
2022-04-29T04:49:00,mfh,44.00
2022-04-29T04:50:00,mfh,41.52
2022-04-29T04:51:00,mfh,41.51
2022-04-29T04:52:00,mfh,41.54
2022-04-29T04:53:00,mfh,41.51
2022-04-29T04:54:00,mfh,42.20
2022-04-29T04:55:00,mfh,42.21
2022-04-29T04:56:00,mfh,42.19
2022-04-29T04:57:00,mfh,43.04
2022-04-29T04:58:00,mfh,42.30
2022-04-29T04:59:00,mfh,42.41
2022-04-29T05:00:00,mfh,43.16
2022-04-29T05:01:00,mfh,63.11
2022-04-29T05:02:00,mfh,64.80
2022-04-29T05:03:00,mfh,65.30
2022-04-29T05:04:00,mfh,65.28
2022-04-29T05:05:00,mfh,65.28
2022-04-29T05:06:00,mfh,64.88
2022-04-29T05:07:00,mfh,64.71
2022-04-29T05:08:00,mfh,64.21
2022-04-29T05:09:00,mfh,65.36
2022-04-29T05:10:00,mfh,65.49
2022-04-29T05:11:00,mfh,65.59
2022-04-29T05:12:00,mfh,65.70
2022-04-29T05:13:00,mfh,65.77
2022-04-29T05:14:00,mfh,65.99
2022-04-29T05:15:00,mfh,65.69
2022-04-29T05:16:00,mfh,65.98
2022-04-29T05:17:00,mfh,65.55
2022-04-29T05:18:00,mfh,66.30
2022-04-29T05:19:00,mfh,67.14
2022-04-29T05:20:00,mfh,66.12
2022-04-29T05:21:00,mfh,65.95
2022-04-29T05:22:00,mfh,65.90
2022-04-29T05:23:00,mfh,65.21
2022-04-29T05:24:00,mfh,65.12
2022-04-29T05:25:00,mfh,64.62
2022-04-29T05:26:00,mfh,64.44
2022-04-29T05:27:00,mfh,65.05
2022-04-29T05:28:00,mfh,65.03
2022-04-29T05:29:00,mfh,65.03
2022-04-29T05:30:00,mfh,65.06
2022-04-29T05:31:00,mfh,65.40
2022-04-29T05:32:00,mfh,65.00
2022-04-29T05:33:00,mfh,64.57
2022-04-29T05:34:00,mfh,64.94
2022-04-29T05:35:00,mfh,65.97
2022-04-29T05:36:00,mfh,66.00
2022-04-29T05:37:00,mfh,65.98
2022-04-29T05:38:00,mfh,66.47
2022-04-29T05:39:00,mfh,65.30
2022-04-29T05:40:00,mfh,63.85
2022-04-29T05:41:00,mfh,65.04
2022-04-29T05:42:00,mfh,64.77
2022-04-29T05:43:00,mfh,65.39
2022-04-29T05:44:00,mfh,66.06
2022-04-29T05:45:00,mfh,65.45
2022-04-29T05:46:00,mfh,65.85
2022-04-29T05:47:00,mfh,64.63
2022-04-29T05:48:00,mfh,64.47
2022-04-29T05:49:00,mfh,64.54
2022-04-29T05:50:00,mfh,64.59
2022-04-29T05:51:00,mfh,65.64
2022-04-29T05:52:00,mfh,65.78
2022-04-29T05:53:00,mfh,65.48
2022-04-29T05:54:00,mfh,64.84
2022-04-29T05:55:00,mfh,64.84
2022-04-29T05:56:00,mfh,64.92
2022-04-29T05:57:00,mfh,64.51
2022-04-29T05:58:00,mfh,64.25
2022-04-29T05:59:00,mfh,64.07
2022-04-29T06:00:00,mfh,64.83
2022-04-29T06:01:00,mfh,65.48
2022-04-29T06:02:00,mfh,64.97
2022-04-29T06:03:00,mfh,65.13
2022-04-29T06:04:00,mfh,64.80
2022-04-29T06:05:00,mfh,65.22
2022-04-29T06:06:00,mfh,64.73
2022-04-29T06:07:00,mfh,64.69
2022-04-29T06:08:00,mfh,65.21
2022-04-29T06:09:00,mfh,65.43
2022-04-29T06:10:00,mfh,65.49
2022-04-29T06:11:00,mfh,65.62
2022-04-29T06:12:00,mfh,65.03
2022-04-29T06:13:00,mfh,65.47
2022-04-29T06:14:00,mfh,65.09
2022-04-29T06:15:00,mfh,65.25
2022-04-29T06:16:00,mfh,65.79
2022-04-29T06:17:00,mfh,66.52
2022-04-29T06:18:00,mfh,66.16
2022-04-29T06:19:00,mfh,66.28
2022-04-29T06:20:00,mfh,66.80
2022-04-29T06:21:00,mfh,65.38
2022-04-29T06:22:00,mfh,65.58
2022-04-29T06:23:00,mfh,65.44
2022-04-29T06:24:00,mfh,65.39
2022-04-29T06:25:00,mfh,66.20
2022-04-29T06:26:00,mfh,65.92
2022-04-29T06:27:00,mfh,66.08
2022-04-29T06:28:00,mfh,65.96
2022-04-29T06:29:00,mfh,66.80
2022-04-29T06:30:00,mfh,65.61
2022-04-29T06:31:00,mfh,65.60
2022-04-29T06:32:00,mfh,66.37
2022-04-29T06:33:00,mfh,66.93
2022-04-29T06:34:00,mfh,66.76
2022-04-29T06:35:00,mfh,67.31
2022-04-29T06:36:00,mfh,67.42
2022-04-29T06:37:00,mfh,65.52
2022-04-29T06:38:00,mfh,67.11
2022-04-29T06:39:00,mfh,66.23
2022-04-29T06:40:00,mfh,66.29
2022-04-29T06:41:00,mfh,67.07
2022-04-29T06:42:00,mfh,67.25
2022-04-29T06:43:00,mfh,66.73
2022-04-29T06:44:00,mfh,66.83
2022-04-29T06:45:00,mfh,66.88
2022-04-29T06:46:00,mfh,65.52
2022-04-29T06:47:00,mfh,65.55
2022-04-29T06:48:00,mfh,76.32
2022-04-29T06:49:00,mfh,83.67
2022-04-29T06:50:00,mfh,84.21
2022-04-29T06:51:00,mfh,84.17
2022-04-29T06:52:00,mfh,83.84
2022-04-29T06:53:00,mfh,83.41
2022-04-29T06:54:00,mfh,83.31
2022-04-29T06:55:00,mfh,82.78
2022-04-29T06:56:00,mfh,82.69
2022-04-29T06:57:00,mfh,82.83
2022-04-29T06:58:00,mfh,82.86
2022-04-29T06:59:00,mfh,82.69
2022-04-29T07:00:00,mfh,81.86
2022-04-29T07:01:00,mfh,81.89
2022-04-29T07:02:00,mfh,82.01
2022-04-29T07:03:00,mfh,81.91
2022-04-29T07:04:00,mfh,75.94
2022-04-29T07:05:00,mfh,75.91
2022-04-29T07:06:00,mfh,69.52
2022-04-29T07:07:00,mfh,65.10
2022-04-29T07:08:00,mfh,65.73
2022-04-29T07:09:00,mfh,65.44
2022-04-29T07:10:00,mfh,63.87
2022-04-29T07:11:00,mfh,64.29
2022-04-29T07:12:00,mfh,65.07
2022-04-29T07:13:00,mfh,65.63
2022-04-29T07:14:00,mfh,65.99
2022-04-29T07:15:00,mfh,66.26
2022-04-29T07:16:00,mfh,73.89
2022-04-29T07:17:00,mfh,83.78
2022-04-29T07:18:00,mfh,86.48
2022-04-29T07:19:00,mfh,86.84
2022-04-29T07:20:00,mfh,86.53
2022-04-29T07:21:00,mfh,86.27
2022-04-29T07:22:00,mfh,86.23
2022-04-29T07:23:00,mfh,86.13
2022-04-29T07:24:00,mfh,85.90
2022-04-29T07:25:00,mfh,85.75
2022-04-29T07:26:00,mfh,85.41
2022-04-29T07:27:00,mfh,85.20
2022-04-29T07:28:00,mfh,85.13
2022-04-29T07:29:00,mfh,84.96
2022-04-29T07:30:00,mfh,85.13
2022-04-29T07:31:00,mfh,85.05
2022-04-29T07:32:00,mfh,84.96
2022-04-29T07:33:00,mfh,84.93
2022-04-29T07:34:00,mfh,84.32
2022-04-29T07:35:00,mfh,84.20
2022-04-29T07:36:00,mfh,84.33
2022-04-29T07:37:00,mfh,84.18
2022-04-29T07:38:00,mfh,83.98
2022-04-29T07:39:00,mfh,84.36
2022-04-29T07:40:00,mfh,84.47
2022-04-29T07:41:00,mfh,84.38
2022-04-29T07:42:00,mfh,84.51
2022-04-29T07:43:00,mfh,84.04
2022-04-29T07:44:00,mfh,83.93
2022-04-29T07:45:00,mfh,83.92
2022-04-29T07:46:00,mfh,84.42
2022-04-29T07:47:00,mfh,84.76
2022-04-29T07:48:00,mfh,84.77
2022-04-29T07:49:00,mfh,84.75
2022-04-29T07:50:00,mfh,79.38
2022-04-29T07:51:00,mfh,78.97
2022-04-29T07:52:00,mfh,73.69
2022-04-29T07:53:00,mfh,70.63
2022-04-29T07:54:00,mfh,78.41
2022-04-29T07:55:00,mfh,84.11
2022-04-29T07:56:00,mfh,85.86
2022-04-29T07:57:00,mfh,86.03
2022-04-29T07:58:00,mfh,85.62
2022-04-29T07:59:00,mfh,85.27
2022-04-29T08:00:00,mfh,85.05
2022-04-29T08:01:00,mfh,84.86
2022-04-29T08:02:00,mfh,84.83
2022-04-29T08:03:00,mfh,85.72
2022-04-29T08:04:00,mfh,85.19
2022-04-29T08:05:00,mfh,85.39
2022-04-29T08:06:00,mfh,85.10
2022-04-29T08:07:00,mfh,84.73
2022-04-29T08:08:00,mfh,84.72
2022-04-29T08:09:00,mfh,84.55
2022-04-29T08:10:00,mfh,84.64
2022-04-29T08:11:00,mfh,84.55
2022-04-29T08:12:00,mfh,84.79
2022-04-29T08:13:00,mfh,84.82
2022-04-29T08:14:00,mfh,84.87
2022-04-29T08:15:00,mfh,84.84
2022-04-29T08:16:00,mfh,79.34
2022-04-29T08:17:00,mfh,79.40
2022-04-29T08:18:00,mfh,68.73
2022-04-29T08:19:00,mfh,63.29
2022-04-29T08:20:00,mfh,64.04
2022-04-29T08:21:00,mfh,64.34
2022-04-29T08:22:00,mfh,64.07
2022-04-29T08:23:00,mfh,64.44
2022-04-29T08:24:00,mfh,63.67
2022-04-29T08:25:00,mfh,64.44
2022-04-29T08:26:00,mfh,63.95
2022-04-29T08:27:00,mfh,64.80
2022-04-29T08:28:00,mfh,64.54
2022-04-29T08:29:00,mfh,65.12
2022-04-29T08:30:00,mfh,65.27
2022-04-29T08:31:00,mfh,64.07
2022-04-29T08:32:00,mfh,63.23
2022-04-29T08:33:00,mfh,64.19
2022-04-29T08:34:00,mfh,64.49
2022-04-29T08:35:00,mfh,64.29
2022-04-29T08:36:00,mfh,64.30
2022-04-29T08:37:00,mfh,64.70
2022-04-29T08:38:00,mfh,65.14
2022-04-29T08:39:00,mfh,64.80
2022-04-29T08:40:00,mfh,64.74
2022-04-29T08:41:00,mfh,64.72
2022-04-29T08:42:00,mfh,64.82
2022-04-29T08:43:00,mfh,65.35
2022-04-29T08:44:00,mfh,65.73
2022-04-29T08:45:00,mfh,65.76
2022-04-29T08:46:00,mfh,67.15
2022-04-29T08:47:00,mfh,65.92
2022-04-29T08:48:00,mfh,64.82
2022-04-29T08:49:00,mfh,65.18
2022-04-29T08:50:00,mfh,64.64
2022-04-29T08:51:00,mfh,64.99
2022-04-29T08:52:00,mfh,65.56
2022-04-29T08:53:00,mfh,66.58
2022-04-29T08:54:00,mfh,67.27
2022-04-29T08:55:00,mfh,67.08
2022-04-29T08:56:00,mfh,67.26
2022-04-29T08:57:00,mfh,65.30
2022-04-29T08:58:00,mfh,65.51
2022-04-29T08:59:00,mfh,64.69
2022-04-29T09:00:00,mfh,64.43
2022-04-29T09:01:00,mfh,83.01
2022-04-29T09:02:00,mfh,83.42
2022-04-29T09:03:00,mfh,83.31
2022-04-29T09:04:00,mfh,83.37
2022-04-29T09:05:00,mfh,82.69
2022-04-29T09:06:00,mfh,86.61
2022-04-29T09:07:00,mfh,86.75
2022-04-29T09:08:00,mfh,86.60
2022-04-29T09:09:00,mfh,87.04
2022-04-29T09:10:00,mfh,86.63
2022-04-29T09:11:00,mfh,86.56
2022-04-29T09:12:00,mfh,86.43
2022-04-29T09:13:00,mfh,86.31
2022-04-29T09:14:00,mfh,86.53
2022-04-29T09:15:00,mfh,85.91
2022-04-29T09:16:00,mfh,85.78
2022-04-29T09:17:00,mfh,85.53
2022-04-29T09:18:00,mfh,85.63
2022-04-29T09:19:00,mfh,85.71
2022-04-29T09:20:00,mfh,85.80
2022-04-29T09:21:00,mfh,85.51
2022-04-29T09:22:00,mfh,84.93
2022-04-29T09:23:00,mfh,84.97
2022-04-29T09:24:00,mfh,75.14
2022-04-29T09:25:00,mfh,73.89
2022-04-29T09:26:00,mfh,71.54
2022-04-29T09:27:00,mfh,64.47
2022-04-29T09:28:00,mfh,64.32
2022-04-29T09:29:00,mfh,64.92
2022-04-29T09:30:00,mfh,63.94
2022-04-29T09:31:00,mfh,65.05
2022-04-29T09:32:00,mfh,63.90
2022-04-29T09:33:00,mfh,64.77
2022-04-29T09:34:00,mfh,65.19
2022-04-29T09:35:00,mfh,66.43
2022-04-29T09:36:00,mfh,66.62
2022-04-29T09:37:00,mfh,66.71
2022-04-29T09:38:00,mfh,65.75
2022-04-29T09:39:00,mfh,67.27
2022-04-29T09:40:00,mfh,64.75
2022-04-29T09:41:00,mfh,65.83
2022-04-29T09:42:00,mfh,82.23
2022-04-29T09:43:00,mfh,82.77
2022-04-29T09:44:00,mfh,82.70
2022-04-29T09:45:00,mfh,82.44
2022-04-29T09:46:00,mfh,80.93
2022-04-29T09:47:00,mfh,81.29
2022-04-29T09:48:00,mfh,80.61
2022-04-29T09:49:00,mfh,80.38
2022-04-29T09:50:00,mfh,81.79
2022-04-29T09:51:00,mfh,80.82
2022-04-29T09:52:00,mfh,80.54
2022-04-29T09:53:00,mfh,81.40
2022-04-29T09:54:00,mfh,80.27
2022-04-29T09:55:00,mfh,80.07
2022-04-29T09:56:00,mfh,80.13
2022-04-29T09:57:00,mfh,80.11
2022-04-29T09:58:00,mfh,80.45
2022-04-29T09:59:00,mfh,80.43
2022-04-29T10:00:00,mfh,80.22
2022-04-29T10:01:00,mfh,80.28
2022-04-29T10:02:00,mfh,76.65
2022-04-29T10:03:00,mfh,69.62
2022-04-29T10:04:00,mfh,69.20
2022-04-29T10:05:00,mfh,64.51
2022-04-29T10:06:00,mfh,77.80
2022-04-29T10:07:00,mfh,77.61
2022-04-29T10:08:00,mfh,77.68
2022-04-29T10:09:00,mfh,77.52
2022-04-29T10:10:00,mfh,78.08
2022-04-29T10:11:00,mfh,77.39
2022-04-29T10:12:00,mfh,77.29
2022-04-29T10:13:00,mfh,77.33
2022-04-29T10:14:00,mfh,77.01
2022-04-29T10:15:00,mfh,76.84
2022-04-29T10:16:00,mfh,76.51
2022-04-29T10:17:00,mfh,76.78
2022-04-29T10:18:00,mfh,77.17
2022-04-29T10:19:00,mfh,76.00
2022-04-29T10:20:00,mfh,76.23
2022-04-29T10:21:00,mfh,76.17
2022-04-29T10:22:00,mfh,69.21
2022-04-29T10:23:00,mfh,69.91
2022-04-29T10:24:00,mfh,69.84
2022-04-29T10:25:00,mfh,71.43
2022-04-29T10:26:00,mfh,71.50
2022-04-29T10:27:00,mfh,70.67
2022-04-29T10:28:00,mfh,70.60
2022-04-29T10:29:00,mfh,69.83
2022-04-29T10:30:00,mfh,86.20
2022-04-29T10:31:00,mfh,86.70
2022-04-29T10:32:00,mfh,86.75
2022-04-29T10:33:00,mfh,86.58
2022-04-29T10:34:00,mfh,86.43
2022-04-29T10:35:00,mfh,85.83
2022-04-29T10:36:00,mfh,85.94
2022-04-29T10:37:00,mfh,85.62
2022-04-29T10:38:00,mfh,85.54
2022-04-29T10:39:00,mfh,85.38
2022-04-29T10:40:00,mfh,85.95
2022-04-29T10:41:00,mfh,85.52
2022-04-29T10:42:00,mfh,85.60
2022-04-29T10:43:00,mfh,85.36
2022-04-29T10:44:00,mfh,85.02
2022-04-29T10:45:00,mfh,84.83
2022-04-29T10:46:00,mfh,84.81
2022-04-29T10:47:00,mfh,79.15
2022-04-29T10:48:00,mfh,76.76
2022-04-29T10:49:00,mfh,77.63
2022-04-29T10:50:00,mfh,71.03
2022-04-29T10:51:00,mfh,77.75
2022-04-29T10:52:00,mfh,77.08
2022-04-29T10:53:00,mfh,81.37
2022-04-29T10:54:00,mfh,81.06
2022-04-29T10:55:00,mfh,80.78
2022-04-29T10:56:00,mfh,81.08
2022-04-29T10:57:00,mfh,80.94
2022-04-29T10:58:00,mfh,80.89
2022-04-29T10:59:00,mfh,81.13
2022-04-29T11:00:00,mfh,80.72
2022-04-29T11:01:00,mfh,80.79
2022-04-29T11:02:00,mfh,80.88
2022-04-29T11:03:00,mfh,80.91
2022-04-29T11:04:00,mfh,81.25
2022-04-29T11:05:00,mfh,81.59
2022-04-29T11:06:00,mfh,86.09
2022-04-29T11:07:00,mfh,86.22
2022-04-29T11:08:00,mfh,86.13
2022-04-29T11:09:00,mfh,86.07
2022-04-29T11:10:00,mfh,85.36
2022-04-29T11:11:00,mfh,85.30
2022-04-29T11:12:00,mfh,85.23
2022-04-29T11:13:00,mfh,85.63
2022-04-29T11:14:00,mfh,85.33
2022-04-29T11:15:00,mfh,85.30
2022-04-29T11:16:00,mfh,80.26
2022-04-29T11:17:00,mfh,79.60
2022-04-29T11:18:00,mfh,79.62
2022-04-29T11:19:00,mfh,79.53
2022-04-29T11:20:00,mfh,79.59
2022-04-29T11:21:00,mfh,80.40
2022-04-29T11:22:00,mfh,81.09
2022-04-29T11:23:00,mfh,80.17
2022-04-29T11:24:00,mfh,78.28
2022-04-29T11:25:00,mfh,77.44
2022-04-29T11:26:00,mfh,77.27
2022-04-29T11:27:00,mfh,77.67
2022-04-29T11:28:00,mfh,82.79
2022-04-29T11:29:00,mfh,83.32
2022-04-29T11:30:00,mfh,83.10
2022-04-29T11:31:00,mfh,83.13
2022-04-29T11:32:00,mfh,83.13
2022-04-29T11:33:00,mfh,82.63
2022-04-29T11:34:00,mfh,82.35
2022-04-29T11:35:00,mfh,82.37
2022-04-29T11:36:00,mfh,77.59
2022-04-29T11:37:00,mfh,77.71
2022-04-29T11:38:00,mfh,77.88
2022-04-29T11:39:00,mfh,77.95
2022-04-29T11:40:00,mfh,77.80
2022-04-29T11:41:00,mfh,77.81
2022-04-29T11:42:00,mfh,71.01
2022-04-29T11:43:00,mfh,70.92
2022-04-29T11:44:00,mfh,70.27
2022-04-29T11:45:00,mfh,70.72
2022-04-29T11:46:00,mfh,71.86
2022-04-29T11:47:00,mfh,71.48
2022-04-29T11:48:00,mfh,72.39
2022-04-29T11:49:00,mfh,73.29
2022-04-29T11:50:00,mfh,72.01
2022-04-29T11:51:00,mfh,72.15
2022-04-29T11:52:00,mfh,71.06
2022-04-29T11:53:00,mfh,72.30
2022-04-29T11:54:00,mfh,71.94
2022-04-29T11:55:00,mfh,70.96
2022-04-29T11:56:00,mfh,70.78
2022-04-29T11:57:00,mfh,70.98
2022-04-29T11:58:00,mfh,70.18
2022-04-29T11:59:00,mfh,70.28
2022-04-29T12:00:00,mfh,70.26
2022-04-29T12:01:00,mfh,70.66
2022-04-29T12:02:00,mfh,71.10
2022-04-29T12:03:00,mfh,72.40
2022-04-29T12:04:00,mfh,72.62
2022-04-29T12:05:00,mfh,72.86
2022-04-29T12:06:00,mfh,79.84
2022-04-29T12:07:00,mfh,79.59
2022-04-29T12:08:00,mfh,79.59
2022-04-29T12:09:00,mfh,82.73
2022-04-29T12:10:00,mfh,87.04
2022-04-29T12:11:00,mfh,86.81
2022-04-29T12:12:00,mfh,87.10
2022-04-29T12:13:00,mfh,86.79
2022-04-29T12:14:00,mfh,86.67
2022-04-29T12:15:00,mfh,86.16
2022-04-29T12:16:00,mfh,86.08
2022-04-29T12:17:00,mfh,86.03
2022-04-29T12:18:00,mfh,85.87
2022-04-29T12:19:00,mfh,86.27
2022-04-29T12:20:00,mfh,86.32
2022-04-29T12:21:00,mfh,86.39
2022-04-29T12:22:00,mfh,86.32
2022-04-29T12:23:00,mfh,86.35
2022-04-29T12:24:00,mfh,85.96
2022-04-29T12:25:00,mfh,86.08
2022-04-29T12:26:00,mfh,86.11
2022-04-29T12:27:00,mfh,85.90
2022-04-29T12:28:00,mfh,85.84
2022-04-29T12:29:00,mfh,87.91
2022-04-29T12:30:00,mfh,88.02
2022-04-29T12:31:00,mfh,88.02
2022-04-29T12:32:00,mfh,87.78
2022-04-29T12:33:00,mfh,87.84
2022-04-29T12:34:00,mfh,87.84
2022-04-29T12:35:00,mfh,87.79
2022-04-29T12:36:00,mfh,87.62
2022-04-29T12:37:00,mfh,90.00
2022-04-29T12:38:00,mfh,89.67
2022-04-29T12:39:00,mfh,89.79
2022-04-29T12:40:00,mfh,89.27
2022-04-29T12:41:00,mfh,89.13
2022-04-29T12:42:00,mfh,89.07
2022-04-29T12:43:00,mfh,88.98
2022-04-29T12:44:00,mfh,89.13
2022-04-29T12:45:00,mfh,82.02
2022-04-29T12:46:00,mfh,79.57
2022-04-29T12:47:00,mfh,75.73
2022-04-29T12:48:00,mfh,74.40
2022-04-29T12:49:00,mfh,75.19
2022-04-29T12:50:00,mfh,75.41
2022-04-29T12:51:00,mfh,75.24
2022-04-29T12:52:00,mfh,76.39
2022-04-29T12:53:00,mfh,76.48
2022-04-29T12:54:00,mfh,77.10
2022-04-29T12:55:00,mfh,76.33
2022-04-29T12:56:00,mfh,75.84
2022-04-29T12:57:00,mfh,76.15
2022-04-29T12:58:00,mfh,76.42
2022-04-29T12:59:00,mfh,76.98
2022-04-29T13:00:00,mfh,76.95
2022-04-29T13:01:00,mfh,76.55
2022-04-29T13:02:00,mfh,76.00
2022-04-29T13:03:00,mfh,76.64
2022-04-29T13:04:00,mfh,76.91
2022-04-29T13:05:00,mfh,77.48
2022-04-29T13:06:00,mfh,77.12
2022-04-29T13:07:00,mfh,77.64
2022-04-29T13:08:00,mfh,78.00
2022-04-29T13:09:00,mfh,78.62
2022-04-29T13:10:00,mfh,78.51
2022-04-29T13:11:00,mfh,77.90
2022-04-29T13:12:00,mfh,77.96
2022-04-29T13:13:00,mfh,77.65
2022-04-29T13:14:00,mfh,77.19
2022-04-29T13:15:00,mfh,77.06
2022-04-29T13:16:00,mfh,77.31
2022-04-29T13:17:00,mfh,77.69
2022-04-29T13:18:00,mfh,78.66